This demonstration page uses our WeatherBlox Daily Observations layout. Learn more.

36.17497, -115.13722

Hourly Observations for July 28, 2016

Temp ( °F °C ) Dew Point ( °F °C ) Humidity (%) Winds ( mph kmh ) Pressure ( in mb ) Visibility ( mi km ) Precip ( " mm )
12:53 am 00:53 Clear 96 35.6 47 8.3 19 19 NNW 6 9 29.62 1003 10 16.09344 0 0
1:53 am 01:53 Clear 95 35 46 7.8 19 19 N 6 9 29.59 1002 10 16.09344 0 0
2:53 am 02:53 Clear 91 32.8 46 7.8 21 21 Calm 29.62 1003 10 16.09344 0 0
3:53 am 03:53 Clear 91 32.8 47 8.3 22 22 Calm 29.65 1004 10 16.09344 0 0
4:53 am 04:53 Clear 89 31.7 48 8.9 24 24 N 5 7 29.65 1004 10 16.09344 0 0
5:53 am 05:53 Sunny 91 32.8 44 6.7 20 20 NNW 5 7 29.65 1004 10 16.09344 0 0
6:53 am 06:53 Sunny 91 32.8 45 7.2 20 20 NNW 6 9 29.71 1006 10 16.09344 0 0
7:53 am 07:53 Sunny 94 34.4 47 8.3 20 20 N 5 7 29.71 1006 10 16.09344 0 0
8:53 am 08:53 Sunny 96 35.6 48 8.9 19 19 Calm 29.68 1005 10 16.09344 0 0
9:53 am 09:53 Sunny 99 37.2 47 8.3 17 17 SE 5 7 29.68 1005 10 16.09344 0 0
10:53 am 10:53 Sunny 102 38.9 47 8.3 15 15 SW 3 6 29.68 1005 10 16.09344 0 0
11:53 am 11:53 Sunny 104 40 48 8.9 15 15 S 7 11 29.65 1004 10 16.09344 0 0
12:53 pm 12:53 Sunny 108 42.2 46 7.8 12 12 N 3 6 29.62 1003 10 16.09344 0 0
1:53 pm 13:53 Sunny 111 43.9 46 7.8 11 11 N 5 7 29.56 1001 10 16.09344 0 0
2:53 pm 14:53 Sunny 111 43.9 45 7.2 11 11 Calm 29.53 1000 10 16.09344 0 0
3:53 pm 15:53 Sunny 112 44.4 44 6.7 10 10 N 6 9 29.5 999 10 16.09344 0 0
4:53 pm 16:53 Sunny 112 44.4 43 6.1 10 10 NW 3 6 29.5 999 10 16.09344 0 0
5:53 pm 17:53 Sunny 112 44.4 42 5.6 9 9 SE 8 13 29.5 999 10 16.09344 0 0
6:36 pm 18:36 Sunny 109 43 43 6 10 10 N 23 37 29.5 999 10 16.09344 0 0
6:53 pm 18:53 Sunny 107 41.7 43 6.1 11 11 NNW 21 33 29.53 1000 10 16.09344 0 0
7:53 pm 19:53 Clear 106 41.1 42 5.6 11 11 NNW 15 24 29.53 1000 10 16.09344 0 0
8:53 pm 20:53 Clear 104 40 47 8.3 15 15 ENE 12 19 29.59 1002 10 16.09344 0 0
9:53 pm 21:53 Clear 102 39 46 8 15 15 S 12 19 29.68 1005 10 16.09344 0 0
10:53 pm 22:53 Clear 102 38.9 47 8.3 15 15 SSW 13 20 29.65 1004 10 16.09344 0 0
11:53 pm 23:53 Clear 100 37.8 48 8.9 17 17 SSW 9 15 29.65 1004 10 16.09344 0 0

Powered by AerisWeather